{"data":{"norad_id":68911,"epoch":"2026-05-25T02:08:33.862848Z","epoch_age_seconds":77596,"freshness":"FRESH","line1":"1 68911U 26097S   26145.08928082  .00020734  00000+0  38163-3 0  9993","line2":"2 68911  97.2858 340.8938 0001184 105.5659 254.5723 15.49208982  3948","mean_motion":15.49208982,"eccentricity":0.0001184,"inclination_deg":97.2858,"raan_deg":340.8938,"arg_perigee_deg":105.5659,"mean_anomaly_deg":254.5723,"bstar":0.00038163,"rev_number":394,"period_min":92.950661707434,"perigee_km":418.23403450079,"apogee_km":419.84360573499,"semimajor_km":6797.1758201179,"source":"CELESTRAK","updated_at":"2026-05-25T13:38:22.069726Z"}}